San Bernardino, CA

2:56 PM PST on December 06, 2019 (GMT -0800)
San Bernardino International

Weather History for KSBD - May, 2019

Change the Weather History Date:

Wednesday, May 1, 2019

  Actual Average Record
Temperature  
Mean Temperature 64 °F -  
Max Temperature 75 °F 78 °F 93 °F (2017)
Min Temperature 54 °F 49 °F 48 °F (2011)
Growing Degree Days 14 (Base 50)    
Moisture  
Dew Point 45 °F    
Average Humidity 56    
Maximum Humidity 70    
Minimum Humidity 29    
Precipitation  
Precipitation 0.00 in - - ()
Sea Level Pressure  
Sea Level Pressure 30.00 in    
Wind  
Wind Speed 4 mph (WSW)    
Max Wind Speed 12 mph    
Max Gust Speed -    
Visibility 8 miles    
Events      
Averages and records for this station are not official NWS values.
T = Trace of Precipitation, MM = Missing Value Source: NWS Daily Summary

Daily Weather History Graph

Daily Weather History Graph

Search for Another Location

Airport or City:

Astronomy

May. 01, 2019 Rise Set
Actual Time 5:59 AM PDT 7:32 PM PDT
Civil Twilight 5:33 AM PDT 7:59 PM PDT
Nautical Twilight 5:01 AM PDT 8:31 PM PDT
Astronomical Twilight 4:27 AM PDT 9:05 PM PDT
Moon 4:33 AM PDT (5/1) 4:37 PM PDT (5/1)
Length of Visible Light 14h 26m
Length of Day
13h 33m
Waning Crescent, 10% of the Moon is Illuminated
May 1
Waning Crescent
May 4
New
May 11
First Quarter
May 18
Full
May 26
Last Quarter

Hourly Weather History & Observations

Time (PDT) Temp. Dew Point Humidity Pressure Visibility Wind Dir Wind Speed Gust Speed Precip Events Conditions
2:40 AM 56.3 °F 44.8 °F 65% 29.99 in 10.0 mi West 3.5 mph - N/A   Unknown
3:00 AM 56.3 °F 45.0 °F 66% 29.99 in 10.0 mi WSW 4.6 mph - N/A   Unknown
3:20 AM 56.3 °F 45.0 °F 66% 29.99 in 10.0 mi Calm Calm - N/A   Unknown
3:40 AM 56.3 °F 45.1 °F 66% 29.99 in 10.0 mi Calm Calm - N/A   Unknown
4:00 AM 56.3 °F 45.0 °F 66% 29.99 in 10.0 mi WSW 4.6 mph - N/A   Unknown
4:40 AM 55.2 °F 44.6 °F 67% 29.99 in 10.0 mi WSW 3.5 mph - N/A   Unknown
5:00 AM 54.7 °F 44.6 °F 69% 29.99 in 10.0 mi WSW 3.5 mph - N/A   Unknown
5:20 AM 54.7 °F 44.6 °F 69% 29.99 in 10.0 mi WSW 3.5 mph - N/A   Unknown
5:40 AM 54.5 °F 44.8 °F 70% 29.99 in 10.0 mi West 3.5 mph - N/A   Unknown
6:45 AM 55.4 °F 44.6 °F 67% 30.00 in 7.0 mi WSW 4.6 mph - N/A   Mostly Cloudy
7:50 AM 57.2 °F 44.6 °F 63% 30.02 in 6.0 mi WSW 3.5 mph - N/A   Haze
8:50 AM 59.0 °F 46.4 °F 63% 30.03 in 7.0 mi Calm Calm - N/A   Mostly Cloudy
9:53 AM 59.0 °F 44.6 °F 59% 30.03 in 5.0 mi Calm Calm - N/A   Haze
10:50 AM 62.6 °F 44.6 °F 52% 30.03 in 5.0 mi Calm Calm - N/A   Haze
11:50 AM 66.2 °F 44.6 °F 46% 30.01 in 5.0 mi West 3.5 mph - N/A   Haze
12:50 PM 69.8 °F 42.8 °F 38% 29.99 in 6.0 mi WNW 5.8 mph - N/A   Haze
1:46 PM 73.4 °F 41.0 °F 31% 29.97 in 6.0 mi SW 9.2 mph - N/A   Haze
2:51 PM 75.2 °F 41.0 °F 29% 29.96 in 6.0 mi WSW 6.9 mph - N/A   Haze
3:48 PM 75.2 °F 41.0 °F 29% 29.95 in 6.0 mi SW 9.2 mph - N/A   Haze
4:48 PM 75.2 °F 41.0 °F 29% 29.92 in 6.0 mi West 6.9 mph - N/A   Haze
6:50 PM 69.8 °F 46.4 °F 43% 29.91 in 7.0 mi WSW 11.5 mph - N/A   Scattered Clouds
7:47 PM 66.2 °F 46.4 °F 49% 29.94 in 7.0 mi SW 10.4 mph - N/A   Partly Cloudy
8:50 PM 62.6 °F 46.4 °F 55% 30.00 in 7.0 mi WSW 9.2 mph - N/A   Clear
9:40 PM 61.2 °F 45.5 °F 56% 30.03 in 10.0 mi WSW 9.2 mph - N/A   Unknown
10:00 PM 60.4 °F 45.5 °F 58% 30.03 in 10.0 mi WSW 10.4 mph - N/A   Unknown
10:20 PM 59.5 °F 45.5 °F 60% 30.03 in 10.0 mi WSW 8.1 mph - N/A   Clear
10:40 PM 59.4 °F 45.7 °F 61% 30.05 in 10.0 mi WSW 8.1 mph - N/A   Clear
11:00 PM 59.0 °F 46.2 °F 63% 30.06 in 10.0 mi SW 4.6 mph - N/A   Clear
11:20 PM 58.3 °F 46.0 °F 64% 30.07 in 10.0 mi WSW 4.6 mph - N/A   Clear
11:40 PM 58.3 °F 46.4 °F 65% 30.07 in 10.0 mi Calm Calm - N/A   Clear